DW9112 Weather Reports


time (UTC)temp
C
wind
direction
speed
KPH
gust
KPH
rain 1hr
cm
rain 24hr
cm
rain mn
cm
humidity
%
barometer
mb
20260504201635 26 109 8.0 17.7 0.00 0.00 0.00 43 1015.0
20260504200135 26 100 4.8 22.5 0.00 0.00 0.00 44 1015.0
20260504194632 27 107 6.4 16.1 0.00 0.00 0.00 41 1015.2
20260504193136 27 173 4.8 14.5 0.00 0.00 0.00 39 1015.4
20260504191635 26 128 6.4 14.5 0.00 0.00 0.00 41 1015.5
20260504190127 27 88 4.8 14.5 0.00 0.00 0.00 40 1015.8
20260504184625 26 168 4.8 12.9 0.00 0.00 0.00 40 1016.0
20260504183121 26 156 4.8 8.0 0.00 0.00 0.00 41 1016.1
20260504181620 26 153 4.8 11.3 0.00 0.00 0.00 40 1016.3
20260504180121 26 121 3.2 12.9 0.00 0.00 0.00 41 1016.5
20260504174622 26 9 8.0 16.1 0.00 0.00 0.00 38 1016.6
20260504173126 26 86 4.8 12.9 0.00 0.00 0.00 37 1016.7
20260504171623 25 82 4.8 17.7 0.00 0.00 0.00 39 1016.9
20260504170119 25 213 3.2 11.3 0.00 0.00 0.00 39 1017.1
20260504160125 24 88 1.6 12.9 0.00 0.00 0.00 44 1017.8
20260504150132 23 57 3.2 9.7 0.00 0.00 0.00 46 1018.0
20260504140128 22 97 3.2 11.3 0.00 0.00 0.00 53 1018.0
20260504130129 19 48 3.2 9.7 0.00 0.00 0.00 74 1017.9
20260504120120 15 78 0.0 3.2 0.00 0.00 0.00 88 1017.7
20260504110125 12 78 0.0 3.2 0.00 0.00 0.00 87 1017.2
20260504100127 13 78 0.0 3.2 0.00 0.00 0.00 87 1016.9
20260504090135 13 78 0.0 0.0 0.00 0.00 0.00 86 1016.8
20260504081631 13 78 0.0 3.2 0.00 0.00 0.00 85 1017.1
20260504080141 13 78 0.0 1.6 0.00 0.00 0.00 85 1017.1
20260504070136 13 78 0.0 1.6 0.00 0.00 0.00 84 1016.9
20260504060134 14 78 0.0 3.2 0.00 0.00 0.00 83 1017.9
20260504050128 15 78 0.0 1.6 0.00 0.00 0.00 79 1018.1
20260504044623 15 78 0.0 0.0 0.00 0.00 0.00 79 1018.3
20260504043123 16 78 0.0 3.2 0.00 0.00 0.00 78 1018.3
20260504041623 16 78 0.0 3.2 0.00 0.00 0.00 78 1018.2
20260504040138 16 78 0.0 1.6 0.00 0.00 0.00 76 1018.2
20260504034635 17 78 0.0 3.2 0.00 0.00 0.00 74 1018.3
20260504033128 17 78 1.6 3.2 0.00 0.00 0.00 73 1018.2
20260504031629 17 78 0.0 3.2 0.00 0.00 0.00 72 1018.1
20260504030122 17 78 0.0 3.2 0.00 0.00 0.00 71 1018.1
20260504024622 18 78 0.0 3.2 0.00 0.00 0.00 70 1018.2
20260504023119 18 78 1.6 4.8 0.00 0.00 0.00 70 1018.1
20260504021640 18 79 1.6 6.4 0.00 0.00 0.00 69 1017.9
20260504020131 18 85 1.6 11.3 0.00 0.00 0.00 68 1017.7
20260504014633 18 67 3.2 11.3 0.00 0.00 0.00 68 1017.5
20260504013123 19 84 4.8 12.9 0.00 0.00 0.00 68 1017.2
20260504011637 19 107 1.6 14.5 0.00 0.00 0.00 66 1016.9
20260504010134 19 89 4.8 12.9 0.00 0.00 0.00 65 1016.8
20260504004635 20 99 4.8 11.3 0.00 0.00 0.00 63 1016.8
20260504003128 20 91 1.6 4.8 0.00 0.00 0.00 62 1016.7
20260504001631 20 92 1.6 11.3 0.00 0.00 0.00 60 1016.6
20260504000127 21 94 1.6 12.9 0.00 0.00 0.00 59 1016.6
20260503234639 21 79 3.2 11.3 0.00 0.00 0.00 57 1016.7
20260503233133 22 67 3.2 11.3 0.00 0.00 0.00 56 1016.7
20260503231630 22 84 3.2 12.9 0.00 0.00 0.00 55 1016.5
20260503230127 22 92 3.2 11.3 0.00 0.00 0.00 55 1016.3
20260503224643 22 84 4.8 14.5 0.00 0.00 0.00 54 1016.3
20260503223137 23 113 6.4 12.9 0.00 0.00 0.00 54 1016.3
20260503221633 23 117 6.4 17.7 0.00 0.00 0.00 54 1016.3
20260503220124 23 109 3.2 12.9 0.00 0.00 0.00 54 1016.3
20260503214629 23 72 4.8 20.9 0.00 0.00 0.00 52 1016.3
20260503213131 23 22 6.4 14.5 0.00 0.00 0.00 54 1016.1
20260503211627 23 129 3.2 14.5 0.00 0.00 0.00 53 1016.2
20260503210126 24 90 6.4 17.7 0.00 0.00 0.00 50 1016.2
20260503204623 24 115 4.8 14.5 0.00 0.00 0.00 51 1016.3
20260503203124 24 72 6.4 12.9 0.00 0.00 0.00 50 1016.4